Wind_Speed
5 4 3 2 2 2 3 3 3 2 1 1 2 2 3 3 4 4 5 5 6 7 7 8 9 11 12 13 14 14 14 13 12 12 12 12 13 14 16 18 20 22 23 22 23 24 24 23 22 22 22 22 22 20 19 18 18 18 17 16 16 15 13 13 15 16 15 14 13 12 12 11 12 12 12 14 13 13 12 10 9 9 8 7 7
3 2 1 1 1 1 2 2 2 2 2 3 4 5 5 5 6 6 6 7 8 8 9 9 9 11 12 14 16 16 16 15 14 13 12 13 14 16 18 20 21 22 22 22 22 23 24 25 26 26 25 24 23 22 21 20 19 19 19 18 17 16 14 14 14 15 15 15 14 13 12 12 13 13 13 14 14 13 13 11 10 9 9 8 8
3 2 3 4 3 3 3 4 4 4 4 5 5 6 6 6 7 7 7 7 8 8 9 9 10 11 12 14 16 17 17 17 17 16 16 16 17 18 19 20 21 21 22 22 22 22 24 25 26 26 25 25 24 22 22 22 20 19 20 20 18 17 16 15 15 15 15 15 15 14 13 13 13 13 13 14 14 13 13 12 11 10 10 9 9
4 4 5 5 5 4 4 5 5 5 5 5 6 7 7 7 7 7 7 7 7 7 8 9 9 10 11 13 14 16 16 17 18 18 18 19 19 19 20 20 20 21 21 21 21 22 23 24 24 24 23 24 24 23 21 22 22 20 20 21 19 18 17 17 16 15 15 14 15 14 14 14 14 14 13 14 15 14 13 13 12 12 11 10 10
7 6 6 7 6 6 6 6 5 5 6 6 5 6 7 7 6 6 7 7 7 8 8 9 9 9 10 11 12 13 14 15 16 16 16 16 17 17 17 17 17 18 18 18 19 20 21 22 23 23 22 23 24 23 21 21 21 21 21 21 21 20 19 18 17 16 15 14 15 15 14 14 15 15 14 14 15 15 14 14 13 14 12 11 11
8 7 7 7 7 6 6 6 6 6 6 6 5 5 6 5 5 6 7 7 8 8 8 8 9 9 9 10 11 12 13 13 13 13 13 13 13 13 13 13 13 14 15 16 16 17 18 19 20 20 21 22 23 23 22 21 20 21 22 21 21 22 22 21 19 17 15 14 14 15 15 14 15 15 15 14 15 15 15 15 14 15 14 12 12
9 7 7 7 6 6 6 6 6 6 6 6 6 5 5 5 6 6 7 8 8 9 9 9 9 9 10 10 11 11 11 10 11 11 11 11 11 11 10 10 11 12 13 14 14 14 15 16 17 18 18 19 20 21 22 20 20 20 21 20 21 23 23 22 21 19 15 14 14 15 16 15 15 15 16 15 15 15 15 16 15 16 16 15 13
8 7 7 7 7 6 6 6 6 6 6 6 7 6 6 7 7 7 8 9 10 10 10 9 9 10 10 10 11 11 10 9 9 9 10 11 10 10 9 9 9 10 10 10 11 11 12 13 14 14 15 15 15 16 18 19 19 19 19 19 21 22 23 23 23 21 16 15 15 16 17 17 15 15 16 16 15 16 16 16 17 17 18 17 15
8 8 7 8 9 8 7 7 8 8 8 7 8 7 7 8 9 10 11 11 11 11 11 10 10 10 10 10 11 11 10 10 10 9 10 10 9 8 8 9 9 9 9 9 9 9 10 10 11 12 12 12 12 12 14 16 18 18 19 20 22 22 21 22 23 23 21 18 17 16 17 17 17 16 16 17 17 16 16 16 18 19 19 19 18
9 9 8 10 10 9 8 9 9 9 9 8 8 8 8 9 10 12 12 13 14 13 12 12 11 11 10 10 11 11 11 11 10 10 11 10 8 8 9 10 10 10 10 10 10 10 10 11 11 12 11 11 12 12 12 13 15 16 18 19 21 22 20 20 23 24 24 22 19 18 17 17 18 18 17 17 17 17 17 17 18 20 20 21 20
9 9 9 10 10 9 9 10 10 9 8 8 9 9 10 10 11 12 13 14 14 15 15 14 13 12 11 12 12 12 11 11 11 11 12 10 9 10 10 10 11 11 11 11 11 11 12 13 13 13 13 12 12 12 12 12 13 14 15 17 19 21 20 19 21 22 24 24 22 20 19 17 18 18 17 17 18 17 17 17 19 21 21 22 22
10 9 9 9 9 9 9 9 9 8 8 8 9 10 11 11 11 11 12 14 14 15 15 15 14 13 12 12 13 12 11 12 12 12 12 11 11 12 11 11 11 12 13 12 13 14 15 16 16 16 16 15 14 14 14 14 14 13 14 16 17 20 20 19 19 20 23 24 24 24 22 18 18 18 17 17 18 18 17 17 19 21 22 23 24
9 8 7 7 7 8 8 8 8 8 8 9 10 10 11 10 10 11 13 14 14 14 14 14 14 13 12 11 11 12 11 11 10 10 12 12 13 13 12 12 13 13 14 14 14 15 16 17 18 19 19 18 17 17 17 17 16 15 14 14 15 16 17 18 19 19 21 22 24 26 25 22 20 20 19 17 18 19 18 17 18 21 22 23 25
8 7 6 6 7 7 7 7 8 9 9 10 10 10 10 10 11 12 14 14 15 15 15 15 15 16 15 14 12 11 9 9 10 9 10 12 14 14 13 13 14 15 15 15 15 16 17 19 19 20 21 21 20 19 18 18 19 18 16 14 14 14 15 16 17 17 18 22 25 26 26 25 23 22 20 19 19 20 20 19 18 20 22 23 26
8 7 7 7 7 6 7 8 9 10 11 11 10 11 11 12 13 13 14 14 15 15 16 16 16 17 15 14 14 14 12 9 9 9 11 14 16 15 14 14 15 16 16 16 16 18 19 21 22 23 23 23 23 22 20 20 20 20 19 18 16 14 15 15 15 14 15 18 24 26 26 27 25 24 22 20 21 22 22 21 20 20 22 24 26
8 7 6 6 5 6 7 9 10 11 10 10 11 12 14 14 14 14 14 15 15 16 16 17 17 16 13 12 13 14 11 9 10 10 12 17 17 15 16 16 18 19 19 19 19 20 21 23 24 25 25 25 24 23 22 21 20 20 20 19 17 15 16 17 15 15 15 15 17 22 26 28 27 25 24 23 23 24 24 23 22 20 22 24 25
7 6 4 4 6 7 8 10 11 11 11 12 13 14 15 16 16 16 16 17 17 16 16 16 16 15 13 11 10 9 10 15 18 13 9 13 16 16 17 18 21 23 23 22 21 20 21 21 23 25 24 24 24 23 22 21 21 21 20 18 16 15 16 17 17 16 18 17 15 17 21 26 29 27 25 26 25 25 25 24 24 22 22 23 25
7 6 6 7 8 9 10 11 12 12 13 14 15 15 16 17 17 17 17 17 17 16 15 14 13 12 12 11 8 9 15 20 19 16 15 16 16 17 19 20 23 24 23 23 21 20 20 19 21 24 24 22 22 22 21 21 20 19 18 16 15 15 16 17 18 17 18 18 16 16 16 18 25 28 27 27 27 27 26 25 25 25 24 23 25
8 7 8 8 9 10 11 12 13 14 14 14 15 16 16 17 17 17 16 15 13 12 11 11 10 9 9 9 9 10 15 18 17 19 22 21 20 21 23 24 23 23 22 22 22 21 20 19 20 23 24 23 22 21 21 21 20 18 16 15 15 15 16 16 17 18 18 17 15 14 15 13 17 25 29 30 29 28 28 28 27 26 27 26 25
8 9 9 9 10 12 12 13 14 14 14 14 15 16 16 17 16 15 14 12 11 10 10 9 9 9 9 9 10 11 13 14 14 16 18 23 28 27 26 25 23 22 21 19 21 21 20 20 20 22 24 24 23 23 23 22 22 21 19 17 16 15 16 16 17 18 19 19 17 14 16 15 15 19 24 29 31 31 30 31 30 29 28 28 26
9 10 10 12 13 13 13 13 13 13 13 13 14 14 14 14 13 12 12 11 11 11 11 11 10 10 9 9 9 10 11 12 12 14 15 21 26 27 27 26 24 23 23 20 19 20 20 20 20 20 22 24 24 23 23 23 23 24 23 21 19 17 17 17 17 18 18 19 19 17 16 16 17 17 18 22 28 32 33 33 33 31 30 30 29
11 12 13 14 14 13 12 12 11 11 11 12 12 12 11 11 11 11 11 11 11 12 12 12 11 10 9 9 9 10 10 11 12 13 13 15 18 21 24 25 25 25 26 24 21 20 20 20 20 20 20 21 22 23 22 22 22 23 23 23 22 20 20 19 18 17 17 17 19 18 16 16 18 19 19 19 22 27 33 35 34 33 32 32 31
13 13 14 14 13 12 10 9 9 9 9 9 9 9 10 10 10 10 10 11 11 11 11 11 11 11 11 12 13 13 13 13 14 14 15 15 17 20 21 22 23 24 25 26 23 20 19 18 20 20 20 21 21 22 22 22 21 21 21 22 23 23 22 22 21 20 19 19 19 19 18 18 19 20 20 21 21 22 27 33 35 35 33 33 33
13 13 13 12 10 9 8 7 7 7 7 7 8 8 9 9 9 9 9 10 10 10 10 10 11 11 13 14 15 15 15 15 15 15 16 16 17 19 21 22 23 23 24 25 23 21 19 18 21 21 21 22 23 23 23 23 22 22 22 21 21 22 22 23 23 23 23 22 22 21 21 21 21 20 20 22 23 24 25 29 34 37 36 34 33
13 12 10 8 7 6 5 5 5 5 6 6 7 7 7 7 8 8 8 9 9 9 10 10 11 12 14 14 14 14 14 14 14 14 15 16 18 19 20 21 23 23 23 23 24 23 22 22 23 23 23 24 25 25 25 25 25 24 23 22 21 21 21 22 22 23 24 25 24 24 24 25 23 22 21 21 22 24 25 27 31 36 38 37 35
11 8 6 5 4 3 3 3 4 5 5 5 5 6 6 7 7 8 8 8 8 9 10 10 11 12 13 13 13 13 13 14 15 16 17 18 20 23 24 24 24 23 23 23 24 25 26 27 26 25 26 27 27 27 26 26 26 26 25 24 23 22 22 22 22 22 23 24 24 25 26 28 27 25 23 22 21 21 24 27 30 34 39 40 39
8 5 4 3 2 1 1 2 3 4 4 4 5 5 6 7 7 7 8 8 8 9 10 10 11 12 12 13 13 13 14 15 16 17 19 20 21 23 25 26 27 27 27 26 25 25 28 30 28 27 28 29 29 29 28 27 26 26 26 26 25 24 24 23 22 22 23 23 23 24 26 28 29 28 26 24 23 22 23 26 29 33 38 42 43
6 4 3 2 1 0 1 2 3 4 4 5 5 5 6 6 6 7 7 7 8 9 9 10 10 11 12 12 13 14 15 16 17 17 19 20 20 21 23 24 26 27 29 30 29 28 29 32 31 30 30 31 31 30 30 29 28 28 27 27 28 27 26 25 24 23 23 23 23 23 25 26 28 29 29 27 26 25 25 25 27 30 35 39 41
5 4 3 2 1 0 1 3 3 4 4 5 5 5 5 5 6 6 7 8 8 8 9 9 10 11 12 13 14 15 16 16 17 18 18 18 19 21 22 22 22 24 25 29 31 31 31 33 34 34 33 33 33 32 32 32 32 32 31 30 29 29 28 26 25 25 24 23 23 23 24 25 26 28 30 30 28 27 27 28 28 27 30 33 35
4 4 3 2 1 1 2 3 3 4 4 4 4 4 4 5 5 6 8 8 8 7 8 9 10 11 12 13 14 15 16 17 17 17 17 18 20 21 21 21 22 23 22 24 28 31 33 34 34 35 36 35 35 35 34 34 35 35 34 33 32 32 30 27 25 24 24 24 23 23 23 24 25 27 29 30 30 29 28 29 30 28 27 30 33
4 3 2 2 1 1 2 2 2 3 3 3 3 3 4 4 5 6 8 7 6 7 9 10 11 11 12 13 14 15 16 16 16 16 17 19 20 21 21 23 24 25 24 23 26 30 32 34 35 35 36 36 36 36 36 36 36 36 36 36 35 33 32 30 27 24 23 24 23 23 23 23 24 26 28 29 30 30 30 29 29 29 28 28 32
5 3 3 3 3 2 1 1 2 2 3 2 2 2 3 3 4 6 8 6 6 8 10 10 11 12 13 13 14 14 15 15 15 17 19 20 21 22 23 25 25 25 25 24 26 30 31 31 34 35 35 36 36 37 38 37 37 38 39 39 38 36 34 33 31 27 24 23 23 23 23 23 23 24 26 29 30 31 32 30 29 29 29 28 30
5 5 5 4 3 2 0 0 1 2 2 2 2 2 3 3 5 7 7 6 7 9 10 10 12 12 12 12 13 15 15 16 17 18 20 21 23 24 25 25 24 24 25 25 26 31 32 31 32 34 35 37 37 38 39 40 40 40 41 41 41 40 38 36 34 31 28 26 25 24 23 23 23 23 24 27 29 31 32 33 31 30 30 30 29
7 7 6 4 3 2 1 1 2 2 2 2 2 2 3 4 5 7 7 7 7 9 9 10 11 11 11 12 14 16 17 17 18 19 20 22 23 24 24 23 23 23 23 24 26 30 33 34 34 35 36 37 38 39 40 42 43 43 43 43 43 43 42 40 37 35 33 31 28 26 25 23 23 23 23 25 27 29 32 34 34 32 31 30 31
8 8 6 4 3 3 3 3 3 3 3 2 2 2 3 4 5 6 7 7 7 8 9 10 11 11 12 13 15 16 17 17 18 19 20 21 22 22 23 22 21 21 22 24 26 29 33 34 34 35 37 38 39 40 41 43 44 45 45 45 45 45 45 43 42 40 37 36 33 29 26 24 22 22 22 23 25 27 30 33 35 35 33 31 31
8 7 6 5 4 4 4 4 4 4 3 3 2 2 3 4 5 5 6 7 7 8 9 10 11 12 13 15 16 16 16 17 18 19 20 21 21 21 21 21 21 22 23 23 25 27 31 34 35 35 36 37 39 40 41 43 45 45 46 47 47 48 47 46 46 44 42 40 36 32 28 25 23 21 21 22 23 25 28 31 34 35 35 34 32
7 7 7 6 6 6 5 5 5 5 4 3 2 2 3 4 5 4 4 5 6 7 9 11 13 15 15 16 16 16 16 17 18 19 19 19 19 19 20 21 22 23 24 24 25 26 29 33 35 36 36 37 39 40 40 43 45 46 48 48 49 49 50 49 48 47 46 43 39 35 31 28 25 23 22 22 22 22 25 29 33 35 36 36 34
6 7 7 7 7 7 6 6 6 5 4 3 2 2 3 4 4 4 4 4 5 7 10 13 15 16 16 16 16 16 16 17 17 17 18 18 18 19 20 21 23 24 25 26 27 28 30 32 34 36 37 38 39 41 41 41 42 45 48 51 52 51 50 51 51 50 47 44 41 38 35 32 30 28 26 24 23 23 23 26 30 34 36 37 37
7 7 8 8 8 7 7 7 6 5 4 3 2 2 3 4 4 4 4 5 6 8 10 13 15 16 17 16 15 15 15 16 16 16 17 17 18 19 20 21 22 24 26 27 29 30 31 32 33 35 37 38 39 41 41 41 41 42 45 50 54 54 52 51 51 51 49 47 45 43 41 39 36 33 30 27 25 24 23 24 28 32 35 37 38
8 8 8 8 8 8 8 7 7 6 5 3 2 2 3 4 4 4 5 5 6 8 10 12 14 16 16 15 14 13 13 13 14 14 15 16 17 18 19 20 22 24 27 29 31 32 32 32 33 34 36 38 39 40 42 42 42 43 44 46 50 53 53 52 51 50 50 50 48 47 47 45 41 36 33 30 26 23 23 23 25 29 33 36 38
9 9 9 8 8 8 8 8 7 6 5 4 3 2 2 4 4 4 4 5 6 8 9 11 13 15 15 14 13 11 10 11 11 12 13 15 17 19 20 21 23 26 29 31 32 32 31 32 33 34 36 37 39 41 42 42 41 43 44 45 47 50 51 52 51 50 49 49 50 52 50 47 44 39 34 32 28 24 23 22 23 27 31 35 38
10 10 10 10 9 8 8 8 7 6 5 4 4 3 2 3 4 5 5 5 6 7 8 10 12 13 14 13 12 9 8 10 11 11 12 13 14 17 20 22 24 27 31 33 32 30 30 31 32 33 35 37 38 40 40 41 40 42 44 44 47 49 48 50 53 52 49 49 52 55 52 48 45 42 36 33 30 26 22 21 21 23 28 32 37
11 11 10 10 10 9 8 7 7 7 6 5 4 3 3 3 4 5 5 5 5 6 7 8 11 12 12 12 10 8 9 11 12 13 13 13 14 17 19 21 24 27 30 32 31 28 28 30 31 32 33 36 38 39 39 40 41 42 43 43 45 47 46 46 50 53 52 51 52 54 53 49 45 42 38 34 31 27 23 20 19 20 24 29 34
12 11 11 10 10 10 9 8 8 7 6 5 5 4 4 3 3 5 5 5 5 5 6 8 10 10 10 9 8 8 9 12 13 14 14 16 18 20 21 23 24 26 28 29 27 26 27 29 30 31 32 35 38 39 40 41 42 42 43 43 43 44 43 43 45 50 52 50 49 50 51 49 44 42 38 33 29 26 23 20 18 18 21 25 30
13 12 11 11 11 10 9 8 8 7 7 6 6 5 4 3 2 3 4 4 4 4 5 7 9 9 8 7 6 7 9 12 13 14 16 19 21 22 23 25 26 26 27 27 25 24 25 27 29 29 30 34 38 40 40 40 42 44 44 44 44 43 42 42 44 48 50 47 45 46 49 47 43 39 36 30 25 23 21 18 17 17 18 22 27
13 13 12 12 11 11 10 9 8 8 8 7 7 5 4 3 2 3 3 3 3 4 5 7 9 8 7 6 6 7 10 12 14 16 18 20 22 24 24 26 27 27 28 28 26 25 24 25 27 28 29 32 36 39 40 40 41 43 44 45 45 43 42 42 43 46 46 43 41 42 45 45 41 38 37 31 25 23 21 18 16 16 16 18 23
13 13 13 12 12 11 10 9 9 8 8 8 7 5 4 3 2 2 2 1 2 3 5 7 8 6 6 7 8 9 11 12 13 16 19 21 22 23 25 26 27 28 29 29 28 27 26 25 25 26 29 31 35 38 39 39 40 42 42 43 44 43 43 44 45 45 43 40 38 37 39 41 39 38 38 35 31 29 24 19 16 15 14 15 18
14 14 13 13 12 12 11 10 9 8 8 8 7 6 4 2 2 2 1 1 1 3 4 6 5 5 7 9 10 10 11 12 13 15 18 21 22 23 25 27 28 29 30 29 28 27 27 26 24 25 28 30 34 37 38 38 40 42 43 43 44 43 44 46 47 46 43 39 35 31 34 39 38 37 39 38 36 34 28 20 17 15 13 13 15
15 14 14 13 12 11 11 10 8 7 7 7 7 6 4 2 1 1 1 0 1 2 3 3 3 5 8 9 9 10 11 11 13 15 18 20 22 24 26 27 29 30 31 31 30 29 29 28 26 26 28 30 33 37 38 38 39 43 44 46 46 44 44 48 49 47 44 39 33 30 33 38 38 37 39 40 39 36 29 22 16 13 11 10 11
15 14 14 14 13 12 11 10 9 7 7 7 7 6 5 3 2 0 0 1 1 2 2 1 3 6 7 8 8 10 11 12 13 16 18 20 22 24 27 28 30 31 32 32 32 32 32 31 30 29 29 32 35 38 39 39 40 43 45 46 46 44 44 47 48 46 44 39 32 31 35 37 37 36 37 40 42 38 29 21 15 11 9 9 10
15 15 15 14 13 12 11 10 9 8 7 7 7 7 6 4 2 2 1 1 1 1 0 1 3 5 6 7 9 10 11 12 14 16 18 20 22 24 26 28 30 32 33 33 33 33 34 35 34 34 33 34 37 39 41 41 42 44 45 45 45 44 43 45 46 44 43 40 33 30 33 36 37 37 34 34 39 39 30 21 16 13 9 9 11
Wind_Direction
145 145 141 143 154 171 182 186 181 176 215 285 305 307 309 302 301 296 292 290 288 289 289 292 294 293 292 292 293 295 299 303 302 299 297 301 303 303 303 304 305 305 308 310 307 303 301 299 300 303 305 305 304 303 306 307 303 302 307 312 314 317 317 318 318 318 318 310 299 286 272 252 241 241 223 210 211 210 209 212 212 211 210 208 207
167 158 207 246 237 235 234 240 243 268 295 305 311 307 302 299 299 298 299 300 299 298 294 294 293 292 290 289 288 289 293 299 304 304 302 301 299 298 300 303 304 305 308 309 307 304 301 299 301 304 307 308 305 305 308 303 298 296 299 303 305 310 310 312 316 314 314 311 302 291 278 261 246 242 231 218 218 215 209 209 213 215 214 211 211
215 211 264 272 275 286 286 280 277 282 295 302 300 294 291 291 292 294 300 303 302 297 292 290 288 287 288 286 284 283 284 288 293 297 298 296 294 294 296 300 302 304 306 305 304 303 301 302 304 305 307 310 308 308 308 303 299 293 294 298 299 304 306 307 311 311 310 308 303 295 285 271 254 246 237 224 222 222 213 209 212 215 215 214 213
241 244 261 266 268 267 264 263 267 271 276 279 276 280 283 284 286 291 298 301 300 295 292 291 288 287 288 289 287 284 283 283 286 289 292 294 294 295 297 301 303 304 305 304 302 300 300 303 305 306 307 309 309 308 307 304 300 291 288 293 294 297 301 301 304 306 305 304 302 296 288 277 263 251 244 230 224 224 219 213 212 213 216 216 217
245 249 252 254 254 248 244 242 246 247 243 246 255 269 275 277 281 289 297 300 299 296 295 295 294 295 295 294 293 290 289 288 289 290 292 293 294 297 300 303 306 308 309 309 308 305 303 304 306 309 310 310 310 312 313 312 307 296 290 293 291 289 292 293 295 299 300 299 299 297 292 282 270 258 248 238 227 223 221 220 217 214 215 216 218
238 244 246 246 244 239 232 229 235 241 243 250 254 260 266 268 274 284 293 295 293 290 290 292 297 301 299 297 294 293 295 297 299 300 300 299 300 302 304 306 309 314 317 318 319 317 315 314 314 315 314 313 315 316 319 320 311 300 296 297 290 284 284 287 286 288 291 292 294 294 293 286 276 265 255 245 232 223 221 223 223 218 215 215 218
231 236 240 235 229 228 226 227 235 245 255 257 252 257 263 265 275 286 292 291 291 292 295 301 305 307 304 301 299 298 300 303 304 304 304 303 302 301 300 304 310 317 321 323 325 326 327 327 325 323 320 320 321 321 322 322 316 306 302 299 293 285 280 279 280 279 279 283 290 292 291 286 279 270 261 252 238 228 223 222 225 222 215 215 218
229 229 229 222 217 221 224 228 237 248 254 251 250 260 269 277 287 294 294 295 299 302 305 310 315 316 312 309 306 304 303 303 302 299 297 297 296 297 299 304 310 315 318 323 327 330 334 334 331 329 327 325 325 325 325 323 320 317 312 306 301 293 280 274 275 276 274 273 279 285 286 283 277 270 264 258 245 234 229 224 222 224 217 214 219
227 224 222 217 216 220 223 229 238 248 252 253 258 265 275 287 297 300 300 304 311 315 317 318 320 320 317 313 309 304 303 303 303 298 293 293 295 303 307 306 304 304 307 313 320 324 325 324 322 322 322 323 323 323 322 321 321 321 320 316 310 303 289 279 277 277 275 270 270 275 279 279 274 268 262 259 254 241 234 229 221 221 219 213 217
224 220 219 216 216 223 229 235 243 252 259 265 270 277 287 298 304 304 305 310 317 322 324 324 324 322 318 311 306 305 306 304 303 297 294 293 297 307 308 302 298 297 301 306 309 309 306 303 305 308 311 314 315 316 315 315 315 315 317 317 316 313 306 291 280 275 271 268 268 270 271 274 273 268 260 254 254 250 240 233 223 219 219 214 215
222 216 217 217 219 228 236 243 250 259 267 274 281 294 302 306 306 305 308 314 320 324 326 325 324 323 320 312 306 307 307 303 300 295 292 289 293 305 305 296 293 294 297 300 301 301 301 299 298 301 302 303 304 306 305 304 307 310 312 313 312 312 311 298 281 272 269 265 262 265 267 267 267 267 263 250 247 253 247 236 226 219 218 215 213
222 218 220 222 226 235 241 248 256 263 270 278 290 301 302 301 301 304 311 316 320 322 322 322 320 318 315 310 306 305 302 298 295 289 287 285 291 302 300 292 292 295 299 302 304 303 302 301 302 304 303 301 300 301 301 301 304 306 310 314 310 307 308 304 293 280 274 269 259 262 268 264 262 261 261 253 243 246 248 241 231 223 219 214 212
225 226 225 227 233 241 246 251 261 270 276 285 294 298 297 300 304 309 313 315 318 320 319 318 315 312 308 300 298 299 295 291 285 279 279 278 286 296 292 288 290 294 300 304 309 310 307 305 306 308 307 306 304 304 303 303 305 303 308 318 313 305 302 301 302 293 285 277 263 262 265 262 261 256 253 253 245 241 246 245 236 229 224 216 212
226 228 227 231 234 239 249 260 272 278 284 290 296 300 301 305 308 313 316 318 321 319 317 315 312 312 311 305 301 296 289 285 276 271 273 275 282 288 285 286 292 296 300 303 307 310 309 307 307 307 307 307 307 309 308 306 306 303 302 309 305 298 293 293 301 302 294 281 267 263 264 261 261 257 249 246 244 240 243 246 241 232 228 219 213
226 228 230 232 236 246 262 278 286 291 294 296 300 303 303 305 309 316 321 323 323 318 316 313 309 311 312 310 309 303 296 282 255 251 271 281 282 280 278 284 294 300 302 303 305 306 306 305 303 302 303 304 306 309 310 308 307 305 302 305 304 294 289 291 297 300 296 282 269 266 266 263 263 260 252 246 242 238 238 242 243 236 230 224 218
229 230 234 242 259 275 284 292 295 295 295 295 298 300 302 308 314 320 324 323 320 316 314 312 310 313 315 315 313 309 305 295 281 274 276 282 285 281 280 287 297 303 306 307 308 306 303 301 298 296 296 298 301 304 307 308 307 307 307 309 309 298 289 291 292 288 287 287 279 270 264 260 262 261 257 254 247 237 236 239 241 239 234 229 223
228 234 251 273 285 291 294 298 298 295 295 297 299 301 305 312 317 320 322 319 317 316 313 312 312 316 320 323 321 312 305 306 310 306 284 283 289 288 289 298 306 310 312 313 313 309 303 299 296 293 290 291 294 296 300 305 306 306 309 312 312 304 295 293 293 284 279 284 287 279 267 256 256 259 259 259 255 246 242 239 238 239 238 233 227
233 251 271 282 289 296 300 303 303 301 302 303 303 305 310 316 320 321 319 316 316 316 316 316 318 320 323 325 322 308 304 310 315 313 305 301 297 295 300 307 311 313 316 315 315 314 309 303 298 295 294 293 292 292 294 298 302 306 307 307 303 298 294 293 293 287 281 286 290 285 280 261 252 255 257 257 257 253 249 243 238 238 239 237 229
244 261 272 281 291 298 302 304 304 304 306 306 308 312 317 320 322 322 322 321 320 321 324 326 327 328 330 323 311 301 303 311 317 315 314 310 305 307 311 314 317 319 321 319 317 317 313 306 301 299 299 299 297 295 294 293 296 300 299 296 292 290 290 290 291 291 287 293 297 284 281 271 251 252 255 255 257 256 253 247 242 238 238 239 233
250 264 274 285 292 295 298 299 300 301 305 310 314 318 322 324 326 328 330 331 332 334 334 334 334 335 336 327 316 309 306 310 315 317 317 310 309 314 316 318 325 330 333 329 325 323 319 313 310 306 304 304 304 301 297 295 294 295 295 294 294 293 291 288 288 291 292 295 299 288 278 272 256 252 254 254 255 257 257 251 244 239 236 238 236
259 272 281 288 292 294 296 296 297 302 308 315 319 323 326 329 331 333 334 335 336 338 338 341 345 345 342 333 322 315 310 309 309 312 315 314 315 321 324 324 327 337 344 342 335 330 327 324 320 315 309 307 309 308 305 301 298 296 295 295 295 294 292 288 285 287 290 293 295 291 281 270 259 254 252 251 249 251 256 254 247 243 236 234 235
268 278 285 291 294 295 297 299 302 308 315 320 323 327 331 333 333 333 335 336 338 342 345 350 354 354 350 341 334 329 325 323 321 322 325 324 323 328 333 331 330 336 341 344 345 339 333 330 325 322 319 315 314 314 313 312 309 303 299 298 296 292 289 287 284 282 282 285 290 291 284 272 260 254 252 251 247 245 249 251 251 248 238 233 235
274 282 288 293 296 298 301 305 308 314 322 327 329 332 332 331 331 334 338 342 347 352 354 358 358 355 355 356 357 358 356 354 351 350 347 343 340 338 339 336 332 335 338 341 346 344 337 333 330 330 327 324 324 322 321 321 320 315 308 304 300 296 292 288 284 281 278 277 280 284 285 280 270 261 255 254 253 249 245 244 247 248 241 234 233
280 286 289 292 297 302 306 308 312 321 329 332 332 330 328 329 331 336 343 348 353 354 354 360 360 359 3 6 9 8 6 7 5 2 358 353 349 344 342 340 338 338 338 340 344 344 343 340 338 338 335 332 331 330 327 325 325 323 317 312 307 303 299 294 288 282 278 275 274 276 278 279 276 269 262 259 257 254 249 242 241 244 244 241 235
282 286 288 293 299 302 305 309 318 329 333 333 329 324 325 330 334 339 345 350 353 353 357 3 4 8 11 10 11 11 10 11 8 3 0 356 351 348 348 346 342 340 340 343 346 344 343 346 347 345 342 339 336 334 333 329 328 328 324 318 314 310 306 302 297 288 281 276 273 270 270 270 272 270 264 261 259 254 251 246 239 238 241 246 243
283 287 288 291 293 291 304 315 324 330 330 330 326 326 331 335 339 343 349 357 360 0 4 9 10 12 13 12 12 13 13 12 7 3 1 359 357 355 352 347 343 343 344 348 351 347 343 347 351 351 346 343 342 339 338 336 332 330 328 323 318 316 313 310 305 298 290 282 276 270 267 266 267 268 266 261 259 254 250 246 240 234 234 242 246
286 289 283 270 264 267 301 318 325 328 333 336 334 336 339 340 346 351 357 7 8 8 12 14 12 13 15 17 16 15 15 13 8 6 5 4 3 1 357 353 349 346 344 347 354 353 348 347 349 353 351 346 346 345 343 342 338 334 332 329 325 322 319 316 313 307 300 293 284 275 269 266 264 265 266 263 258 253 249 246 242 236 232 234 240
289 275 258 239 230 255 321 332 336 333 337 340 336 338 342 347 356 358 8 18 12 13 18 15 15 19 21 21 18 16 17 15 10 9 8 6 6 4 4 3 359 353 346 347 352 354 352 350 347 350 353 349 347 348 346 346 345 342 340 336 333 329 325 322 318 315 309 301 294 286 277 271 267 263 263 263 260 253 247 245 245 243 238 235 236
274 240 227 208 182 25 346 334 333 334 336 335 334 339 346 354 3 9 21 24 14 15 21 19 23 27 25 22 20 19 19 16 12 10 9 8 9 8 9 10 8 4 355 348 351 353 351 352 351 347 348 350 348 347 347 347 347 346 345 342 338 335 332 329 323 318 314 308 300 294 287 279 272 266 262 261 260 256 248 244 244 247 247 243 239
243 212 201 186 171 325 318 321 325 331 335 338 341 348 355 3 9 21 31 25 13 21 32 32 34 32 26 24 23 22 20 16 13 12 12 12 14 15 15 14 11 11 6 351 348 353 351 350 352 349 346 347 348 347 347 348 348 347 345 343 341 338 335 333 328 322 317 312 306 300 294 286 278 271 266 262 260 257 252 247 244 244 248 245 238
217 194 187 199 228 259 282 309 326 338 351 1 4 1 3 9 16 32 41 33 22 38 47 44 41 34 28 27 25 23 21 17 15 16 17 19 20 19 16 15 13 11 11 359 346 351 354 350 349 351 348 346 349 349 347 347 348 347 346 344 342 339 336 333 332 328 322 315 310 304 298 292 284 275 269 265 260 258 254 250 247 243 243 243 239
205 189 193 211 221 225 254 318 345 18 32 36 26 17 14 22 36 50 55 49 41 51 53 49 45 35 28 27 25 25 24 19 20 21 21 22 20 18 15 14 14 11 10 6 351 347 355 354 349 350 350 349 350 350 346 345 346 346 346 344 342 340 338 335 333 331 327 321 315 310 303 297 290 280 272 267 262 259 256 252 250 246 241 239 240
199 189 196 201 203 206 218 41 60 67 70 78 69 48 38 40 56 66 68 63 55 58 56 50 44 34 26 26 26 29 27 23 24 23 22 21 18 17 15 13 14 13 8 6 356 347 350 354 352 351 352 351 350 351 348 345 346 346 344 343 342 341 339 337 335 332 330 325 320 316 310 302 296 286 276 269 264 259 256 253 251 248 244 239 237
189 181 185 186 183 177 148 123 118 119 119 117 95 69 47 42 61 73 74 68 60 58 54 46 43 36 29 29 30 32 29 25 25 23 21 21 18 17 16 13 13 13 9 3 357 350 347 350 352 351 352 352 350 350 350 347 346 345 343 342 341 341 340 338 337 335 333 331 326 322 318 311 303 293 283 273 266 261 257 254 252 249 247 243 237
179 174 170 166 166 162 151 152 154 149 145 135 106 72 42 39 59 77 78 72 62 55 50 46 46 43 36 34 35 34 30 26 26 25 22 21 19 17 17 16 12 9 7 2 356 351 346 346 350 350 350 350 349 349 349 347 346 344 343 342 341 339 339 339 339 338 337 336 333 329 325 319 309 300 290 279 270 264 258 255 253 249 247 246 242
167 166 160 157 159 158 158 163 163 158 156 143 105 66 45 48 60 73 80 76 64 53 49 48 47 44 39 37 36 33 30 27 27 26 24 21 20 19 18 16 12 5 2 359 355 351 345 343 346 348 349 348 347 348 348 345 344 344 343 342 341 340 339 340 340 339 339 339 337 334 329 324 317 307 298 288 276 267 260 255 253 250 247 245 244
161 158 157 158 156 154 158 163 164 162 158 141 109 81 63 59 60 69 85 85 67 55 50 48 45 41 37 36 36 33 29 28 28 27 26 23 20 20 17 13 9 4 0 357 353 349 345 342 342 345 347 346 345 347 348 345 342 343 343 342 341 341 340 340 339 340 340 340 338 336 331 327 323 316 307 299 289 275 263 256 253 251 248 245 244
165 161 159 156 151 150 157 161 161 162 158 147 126 95 70 64 68 80 95 92 71 58 53 50 46 39 35 34 34 33 29 27 27 27 27 25 21 17 13 8 5 1 358 355 352 348 344 342 341 343 345 346 345 346 347 345 341 340 340 340 341 341 340 339 338 339 341 340 338 335 331 328 325 322 316 308 300 288 272 259 253 250 248 245 243
165 161 157 153 149 151 158 159 160 161 161 153 127 100 79 75 84 97 102 94 74 61 53 48 44 38 35 35 33 32 30 28 27 26 24 22 20 15 8 1 357 355 353 351 349 347 345 342 342 343 344 345 346 346 347 346 342 340 340 339 338 339 339 337 336 338 340 339 337 334 331 328 324 322 319 313 305 297 283 267 255 249 247 245 243
161 157 153 153 153 155 158 159 162 163 159 153 134 112 94 87 97 112 108 92 72 59 51 44 38 34 35 36 34 34 34 31 28 25 21 16 13 10 3 357 353 351 351 350 348 348 346 344 343 344 344 344 346 347 347 347 344 341 340 338 335 336 336 335 334 336 337 336 335 332 330 327 323 321 320 317 312 304 291 275 259 249 245 244 242
162 158 156 159 158 159 160 161 163 164 163 162 148 125 106 100 109 121 113 92 71 56 47 39 31 28 32 36 37 38 39 38 32 26 21 15 8 2 358 355 352 351 351 350 349 348 346 344 344 344 345 346 348 348 347 347 344 339 339 338 334 334 334 331 332 334 334 332 330 328 327 327 325 322 321 319 315 308 296 281 266 252 243 241 241
168 165 162 162 161 162 164 163 166 169 168 165 151 132 120 105 98 103 107 98 75 52 40 33 24 20 26 32 36 39 40 36 29 24 21 15 5 357 355 353 350 350 350 350 350 349 346 345 344 345 347 347 350 351 347 346 344 340 339 337 335 335 335 330 329 332 332 331 327 324 326 328 326 324 322 319 316 311 301 286 273 259 245 239 238
174 171 166 164 162 164 167 168 172 173 168 161 151 140 129 99 77 81 91 97 80 53 31 24 19 16 21 26 28 32 30 23 20 21 17 8 359 355 354 353 349 348 350 350 350 350 347 345 343 346 348 348 351 354 350 346 344 341 340 338 336 335 333 328 325 326 329 329 325 321 322 325 327 325 322 321 318 315 306 291 278 265 251 241 236
177 172 168 168 167 168 170 174 175 170 165 159 152 145 131 106 77 77 85 89 79 52 23 16 14 13 19 24 24 24 19 10 9 11 7 359 357 355 354 354 352 352 352 352 352 350 347 345 343 346 351 351 352 356 354 349 345 343 341 340 338 334 330 325 321 320 324 327 324 320 320 323 327 325 320 322 323 319 310 298 284 270 255 244 237
177 173 171 173 173 171 171 173 172 168 164 157 146 137 132 122 104 92 86 79 64 35 12 10 8 9 18 24 25 24 13 1 359 0 357 354 356 356 355 356 357 356 356 356 356 352 347 344 343 346 352 354 354 356 357 353 348 345 343 341 339 335 329 325 322 320 323 327 326 322 319 323 328 322 315 320 324 318 310 302 293 281 265 251 241
177 176 176 177 177 174 169 170 171 167 160 151 142 138 141 139 124 107 94 73 45 13 1 3 2 5 21 27 22 16 4 354 352 353 352 353 355 356 357 360 1 1 359 359 359 356 350 346 344 346 351 354 355 356 357 356 352 347 344 341 339 336 330 326 324 324 326 329 329 323 317 321 325 319 313 319 321 314 308 300 292 287 277 262 248
179 179 179 179 178 173 167 167 169 165 156 147 142 141 142 139 126 110 99 66 22 355 352 356 356 9 35 38 27 15 1 352 348 347 349 353 355 356 360 3 5 4 3 2 1 356 351 348 346 346 350 353 355 356 357 358 355 351 347 345 342 338 332 330 330 330 330 331 331 325 317 318 322 317 314 317 317 311 307 298 288 286 283 273 256
181 180 179 178 177 173 167 164 165 163 156 148 141 139 137 131 123 112 100 42 350 346 347 347 355 27 41 34 26 18 8 358 349 346 349 355 357 358 1 6 7 7 7 6 3 359 355 352 349 349 351 353 356 357 358 359 358 354 351 350 347 342 336 334 335 335 334 334 337 333 319 316 319 317 314 315 314 311 308 299 287 285 286 279 261
182 179 178 176 174 172 166 159 160 163 159 151 141 136 132 119 103 98 97 214 302 341 346 348 22 45 35 25 18 14 10 2 352 349 352 357 360 359 1 5 6 7 8 7 6 4 1 358 355 353 354 356 359 0 1 3 3 359 354 351 349 345 339 338 338 337 336 338 343 338 324 317 319 319 317 316 314 313 312 306 291 282 281 272 254
184 179 178 175 170 167 163 158 159 164 163 154 143 135 132 122 112 122 202 217 262 329 345 21 55 49 35 24 15 8 6 1 354 353 356 360 0 360 1 3 4 6 7 6 5 6 5 3 1 360 360 1 3 5 5 6 8 5 359 354 352 348 342 340 341 339 338 341 347 341 327 321 323 323 321 318 315 314 316 313 301 286 277 258 240
187 179 178 177 170 165 163 162 161 162 162 155 144 135 129 125 130 154 179 214 247 283 239 83 59 52 41 27 16 8 3 358 354 355 359 0 0 360 360 0 1 4 7 5 3 4 5 5 4 3 4 7 8 9 9 9 11 11 7 3 360 353 344 342 344 342 338 341 349 346 330 325 328 327 324 320 315 315 319 319 308 297 284 257 242
Height
1553 1553 1553 1553 1553 1554 1554 1554 1554 1554 1555 1555 1555 1555 1555 1554 1554 1554 1553 1553 1553 1553 1552 1552 1552 1551 1551 1550 1550 1550 1550 1550 1549 1549 1548 1548 1547 1547 1546 1546 1546 1545 1544 1544 1543 1542 1540 1540 1540 1540 1539 1538 1538 1537 1537 1537 1536 1535 1534 1533 1533 1532 1531 1530 1530 1529 1529 1528 1528 1527 1527 1527 1526 1526 1526 1526 1527 1527 1528 1528 1528 1528 1528 1528 1528
1552 1552 1553 1553 1553 1553 1553 1554 1554 1554 1554 1554 1554 1554 1554 1554 1553 1553 1553 1552 1552 1552 1551 1551 1551 1551 1550 1550 1549 1549 1549 1548 1548 1548 1547 1547 1546 1546 1545 1545 1544 1543 1543 1542 1541 1540 1539 1539 1538 1538 1538 1537 1536 1536 1536 1535 1535 1533 1533 1532 1531 1531 1530 1530 1529 1528 1528 1528 1527 1527 1526 1526 1526 1526 1525 1525 1526 1526 1527 1527 1528 1528 1528 1528 1528
1552 1552 1552 1553 1553 1553 1553 1553 1553 1553 1553 1554 1554 1554 1553 1553 1553 1552 1552 1552 1551 1551 1551 1551 1550 1550 1549 1549 1548 1548 1548 1548 1547 1547 1546 1546 1545 1545 1544 1543 1542 1542 1541 1540 1540 1539 1538 1538 1537 1536 1536 1535 1534 1534 1534 1533 1533 1532 1531 1530 1530 1529 1529 1529 1528 1527 1527 1527 1526 1526 1525 1525 1525 1525 1525 1525 1525 1526 1526 1527 1527 1527 1527 1527 1527
1552 1552 1552 1553 1553 1553 1553 1553 1553 1553 1553 1553 1553 1553 1553 1553 1553 1552 1552 1552 1551 1551 1550 1550 1550 1549 1549 1548 1548 1548 1547 1547 1547 1546 1545 1545 1544 1543 1542 1542 1541 1540 1539 1538 1538 1537 1536 1536 1536 1535 1534 1533 1532 1533 1533 1532 1531 1531 1529 1529 1529 1528 1528 1527 1527 1527 1526 1525 1525 1525 1525 1524 1524 1524 1524 1524 1524 1525 1525 1526 1526 1526 1526 1527 1527
1551 1552 1552 1553 1553 1553 1553 1554 1554 1554 1553 1553 1553 1553 1553 1553 1553 1552 1552 1551 1551 1550 1550 1549 1549 1548 1548 1547 1547 1547 1546 1546 1546 1545 1544 1544 1543 1542 1541 1540 1539 1538 1537 1536 1536 1535 1535 1534 1534 1533 1532 1532 1531 1531 1531 1530 1529 1528 1528 1527 1527 1526 1526 1526 1526 1525 1525 1524 1524 1524 1524 1523 1523 1523 1523 1523 1523 1524 1524 1525 1526 1526 1526 1526 1526
1551 1552 1553 1553 1553 1553 1553 1554 1554 1553 1553 1553 1553 1553 1553 1553 1553 1552 1551 1551 1550 1549 1549 1548 1548 1547 1547 1547 1546 1546 1546 1545 1545 1544 1543 1542 1541 1541 1540 1539 1538 1537 1536 1535 1534 1534 1533 1533 1532 1532 1531 1531 1530 1528 1528 1528 1527 1526 1525 1525 1525 1524 1524 1524 1524 1524 1523 1523 1523 1523 1523 1522 1522 1522 1522 1522 1522 1523 1523 1524 1525 1525 1525 1525 1525
1551 1552 1552 1553 1553 1553 1553 1554 1554 1553 1553 1553 1553 1553 1553 1553 1552 1552 1551 1551 1550 1549 1548 1548 1547 1547 1547 1546 1546 1546 1545 1544 1543 1543 1542 1541 1540 1539 1539 1538 1537 1536 1535 1534 1533 1533 1532 1531 1531 1530 1530 1529 1529 1527 1526 1525 1525 1524 1523 1523 1523 1522 1522 1522 1522 1521 1521 1522 1521 1521 1521 1521 1521 1520 1520 1521 1521 1521 1522 1523 1523 1524 1524 1524 1525
1551 1551 1552 1552 1552 1553 1553 1553 1553 1553 1553 1553 1553 1553 1552 1552 1552 1551 1551 1550 1549 1548 1547 1547 1546 1546 1546 1546 1546 1545 1545 1544 1543 1542 1541 1540 1539 1539 1538 1537 1536 1535 1534 1533 1532 1531 1531 1530 1529 1529 1528 1528 1527 1526 1525 1524 1523 1522 1521 1521 1521 1520 1520 1520 1520 1519 1519 1520 1519 1519 1520 1520 1519 1519 1519 1519 1520 1520 1520 1521 1522 1523 1523 1524 1524
1551 1551 1551 1551 1552 1552 1553 1553 1553 1553 1553 1553 1553 1553 1552 1552 1551 1551 1550 1549 1548 1547 1546 1546 1546 1546 1546 1546 1545 1545 1544 1543 1542 1541 1541 1540 1539 1538 1537 1536 1535 1534 1533 1532 1531 1530 1529 1528 1527 1527 1526 1526 1525 1524 1524 1522 1521 1520 1519 1519 1519 1519 1518 1518 1518 1517 1517 1517 1517 1517 1517 1518 1518 1518 1517 1517 1518 1518 1519 1519 1520 1521 1522 1522 1523
1550 1550 1550 1550 1551 1551 1552 1552 1552 1553 1553 1553 1553 1553 1552 1552 1551 1550 1550 1548 1547 1546 1545 1545 1545 1545 1545 1545 1545 1545 1544 1543 1542 1541 1540 1539 1539 1538 1536 1535 1534 1533 1532 1531 1530 1529 1527 1526 1525 1525 1524 1524 1523 1522 1522 1521 1520 1519 1518 1517 1516 1516 1516 1516 1515 1515 1515 1515 1515 1515 1515 1516 1516 1516 1516 1516 1516 1516 1517 1517 1518 1519 1520 1521 1521
1550 1549 1549 1550 1550 1550 1551 1552 1552 1552 1553 1553 1553 1553 1552 1551 1551 1550 1549 1547 1546 1545 1544 1544 1544 1544 1545 1545 1544 1544 1544 1542 1541 1540 1539 1538 1538 1537 1536 1535 1534 1533 1532 1530 1529 1528 1526 1525 1524 1523 1523 1522 1521 1520 1520 1519 1518 1517 1516 1516 1515 1514 1514 1513 1513 1512 1512 1512 1513 1513 1513 1514 1514 1514 1514 1514 1514 1514 1515 1515 1516 1516 1518 1519 1520
1549 1549 1549 1550 1550 1550 1551 1551 1552 1552 1553 1553 1553 1552 1551 1551 1551 1550 1548 1546 1545 1544 1544 1544 1544 1544 1544 1544 1544 1544 1543 1542 1541 1540 1539 1538 1537 1536 1535 1534 1533 1532 1531 1530 1528 1527 1526 1524 1523 1523 1522 1521 1520 1519 1518 1518 1517 1516 1515 1514 1514 1513 1512 1511 1511 1511 1511 1512 1512 1511 1511 1511 1512 1512 1512 1512 1513 1513 1513 1513 1514 1514 1515 1516 1518
1549 1549 1549 1549 1550 1550 1550 1551 1551 1552 1552 1552 1552 1552 1551 1551 1550 1549 1547 1545 1544 1544 1543 1543 1543 1544 1544 1544 1543 1543 1542 1541 1540 1539 1538 1537 1536 1535 1534 1533 1532 1531 1530 1529 1528 1526 1525 1524 1523 1522 1521 1520 1519 1518 1517 1516 1515 1514 1513 1512 1511 1510 1509 1509 1508 1509 1510 1511 1510 1508 1508 1509 1509 1510 1510 1510 1510 1511 1511 1511 1511 1512 1513 1514 1515
1549 1549 1549 1549 1549 1550 1550 1551 1551 1551 1552 1552 1551 1551 1551 1550 1549 1548 1546 1544 1543 1543 1543 1543 1543 1543 1543 1542 1542 1541 1541 1540 1540 1539 1538 1536 1536 1534 1533 1532 1531 1530 1530 1528 1527 1526 1524 1523 1522 1521 1519 1518 1517 1516 1515 1514 1513 1512 1510 1509 1508 1507 1506 1505 1505 1506 1508 1507 1506 1506 1506 1506 1507 1507 1508 1508 1508 1508 1509 1509 1509 1510 1510 1512 1512
1549 1549 1549 1549 1549 1550 1550 1550 1551 1551 1551 1551 1550 1550 1550 1549 1548 1547 1545 1543 1542 1542 1542 1542 1542 1542 1542 1541 1540 1539 1538 1538 1539 1538 1537 1535 1534 1533 1532 1531 1530 1529 1529 1528 1527 1525 1523 1522 1521 1520 1518 1517 1516 1515 1514 1513 1511 1510 1508 1508 1507 1506 1504 1503 1503 1503 1504 1504 1504 1505 1505 1505 1505 1506 1506 1506 1506 1506 1507 1507 1507 1507 1508 1509 1510
1549 1549 1548 1549 1549 1549 1549 1550 1550 1550 1550 1550 1550 1549 1549 1548 1546 1545 1543 1542 1542 1542 1542 1542 1541 1541 1541 1540 1538 1537 1536 1536 1537 1537 1536 1534 1533 1532 1532 1531 1530 1529 1528 1527 1525 1524 1522 1521 1519 1518 1517 1516 1514 1513 1512 1511 1510 1508 1507 1506 1506 1505 1503 1502 1502 1503 1502 1501 1502 1502 1503 1503 1503 1504 1504 1504 1503 1504 1505 1505 1505 1505 1506 1507 1508
1549 1548 1548 1548 1548 1548 1549 1549 1549 1549 1549 1549 1549 1548 1547 1546 1544 1543 1542 1541 1541 1541 1541 1541 1540 1540 1539 1539 1538 1537 1536 1535 1535 1535 1535 1534 1532 1532 1531 1530 1529 1527 1526 1525 1524 1522 1521 1519 1517 1515 1515 1514 1513 1511 1510 1509 1507 1506 1505 1504 1504 1504 1503 1501 1501 1501 1500 1499 1499 1499 1499 1499 1500 1501 1502 1501 1501 1502 1502 1503 1503 1503 1503 1504 1505
1548 1548 1548 1547 1547 1547 1547 1547 1548 1548 1548 1548 1548 1547 1545 1543 1542 1542 1541 1541 1541 1541 1541 1540 1540 1539 1538 1538 1538 1537 1536 1535 1535 1534 1533 1532 1531 1531 1530 1530 1528 1526 1524 1523 1521 1520 1518 1518 1515 1513 1512 1512 1511 1509 1508 1507 1506 1504 1503 1503 1502 1502 1502 1501 1499 1499 1499 1497 1497 1497 1496 1495 1496 1497 1497 1498 1498 1499 1499 1499 1501 1501 1501 1501 1502
1548 1547 1547 1546 1546 1546 1546 1546 1546 1546 1547 1547 1546 1545 1543 1541 1541 1541 1541 1541 1541 1541 1540 1540 1539 1538 1538 1538 1538 1538 1536 1535 1535 1533 1531 1530 1529 1529 1528 1528 1526 1524 1523 1521 1519 1518 1516 1516 1514 1512 1511 1510 1509 1508 1506 1505 1504 1503 1502 1501 1500 1500 1499 1499 1498 1497 1497 1495 1494 1495 1494 1493 1493 1493 1493 1494 1495 1496 1496 1496 1497 1499 1499 1499 1499
1547 1547 1546 1546 1545 1545 1545 1545 1545 1546 1546 1546 1544 1543 1541 1541 1540 1540 1540 1540 1540 1540 1540 1539 1539 1538 1538 1538 1538 1538 1537 1536 1536 1535 1533 1529 1527 1526 1526 1525 1524 1523 1521 1520 1518 1516 1515 1514 1513 1511 1509 1508 1507 1506 1504 1503 1502 1501 1500 1499 1498 1497 1497 1497 1496 1495 1495 1494 1492 1492 1491 1490 1490 1490 1490 1491 1492 1492 1492 1493 1494 1495 1496 1496 1496
1547 1546 1545 1545 1544 1544 1545 1545 1545 1545 1545 1544 1543 1542 1541 1540 1540 1540 1540 1540 1540 1540 1539 1539 1539 1539 1539 1539 1539 1538 1538 1537 1537 1536 1535 1531 1527 1525 1523 1521 1521 1520 1519 1519 1517 1515 1514 1512 1511 1510 1508 1507 1505 1504 1503 1501 1500 1498 1497 1497 1496 1495 1494 1494 1494 1493 1493 1492 1490 1489 1488 1488 1487 1487 1486 1486 1487 1488 1489 1490 1490 1490 1492 1493 1493
1546 1545 1544 1544 1544 1544 1544 1544 1544 1544 1544 1543 1542 1541 1541 1540 1540 1540 1540 1540 1540 1540 1539 1539 1539 1539 1539 1539 1538 1538 1537 1537 1537 1536 1535 1533 1531 1528 1525 1522 1520 1518 1517 1517 1516 1515 1513 1512 1510 1509 1507 1506 1504 1502 1501 1499 1498 1496 1495 1494 1493 1493 1492 1491 1491 1491 1490 1490 1488 1487 1486 1485 1484 1484 1484 1483 1483 1484 1484 1485 1486 1487 1488 1489 1489
1545 1544 1543 1543 1543 1543 1543 1543 1543 1543 1543 1542 1542 1541 1541 1541 1541 1541 1541 1540 1540 1540 1539 1539 1539 1539 1539 1538 1537 1537 1536 1536 1535 1535 1534 1533 1531 1529 1527 1525 1522 1520 1517 1516 1515 1514 1513 1511 1510 1508 1506 1504 1502 1500 1499 1497 1496 1494 1493 1492 1490 1489 1489 1488 1488 1488 1487 1487 1486 1484 1483 1482 1481 1481 1481 1480 1480 1480 1480 1481 1482 1483 1484 1484 1485
1543 1543 1543 1542 1542 1542 1543 1543 1542 1542 1542 1542 1541 1541 1541 1542 1542 1542 1541 1541 1541 1540 1540 1540 1539 1539 1539 1538 1537 1537 1537 1536 1535 1535 1534 1532 1531 1529 1527 1524 1522 1520 1518 1516 1515 1513 1512 1511 1509 1507 1505 1503 1501 1499 1497 1496 1494 1492 1491 1490 1488 1487 1485 1484 1484 1484 1483 1483 1483 1482 1480 1479 1478 1478 1477 1477 1477 1477 1477 1477 1478 1480 1480 1481 1482
1542 1542 1542 1542 1542 1542 1542 1542 1542 1542 1542 1542 1542 1542 1542 1543 1542 1542 1542 1542 1541 1541 1541 1540 1540 1540 1539 1538 1538 1538 1537 1537 1536 1535 1534 1532 1531 1529 1527 1525 1522 1520 1518 1516 1514 1512 1511 1510 1509 1507 1505 1503 1500 1498 1496 1494 1492 1490 1488 1487 1486 1484 1483 1481 1480 1479 1479 1479 1479 1478 1477 1475 1474 1474 1474 1474 1473 1473 1473 1473 1473 1475 1476 1477 1478
1542 1541 1541 1541 1541 1542 1542 1542 1542 1542 1542 1542 1542 1542 1543 1543 1543 1543 1543 1542 1542 1542 1541 1541 1541 1540 1540 1539 1539 1539 1538 1537 1536 1535 1533 1532 1529 1527 1525 1524 1522 1520 1518 1516 1514 1512 1509 1508 1508 1506 1504 1502 1499 1497 1495 1493 1490 1488 1486 1484 1483 1482 1480 1479 1477 1476 1475 1475 1474 1474 1473 1471 1471 1470 1470 1470 1470 1469 1469 1469 1469 1470 1471 1472 1473
1541 1540 1541 1541 1541 1542 1542 1542 1542 1542 1542 1542 1542 1543 1543 1544 1544 1544 1543 1543 1543 1542 1542 1541 1541 1541 1540 1540 1540 1539 1539 1537 1536 1534 1533 1531 1529 1528 1526 1523 1520 1518 1516 1515 1514 1512 1510 1507 1506 1505 1503 1500 1498 1495 1493 1492 1489 1487 1485 1483 1481 1479 1478 1477 1475 1473 1472 1471 1470 1469 1468 1467 1467 1467 1466 1466 1466 1466 1465 1465 1466 1466 1467 1467 1468
1540 1540 1541 1541 1541 1542 1542 1542 1542 1542 1542 1543 1543 1544 1544 1544 1545 1545 1544 1544 1543 1542 1542 1542 1542 1542 1541 1541 1540 1539 1538 1537 1536 1535 1533 1532 1530 1529 1527 1525 1522 1519 1516 1513 1513 1512 1510 1507 1504 1503 1502 1499 1496 1494 1492 1490 1488 1486 1484 1481 1479 1477 1476 1474 1473 1471 1469 1467 1466 1465 1464 1464 1463 1463 1462 1461 1461 1461 1461 1461 1461 1462 1462 1462 1463
1540 1541 1541 1541 1542 1542 1542 1542 1542 1542 1543 1543 1544 1545 1545 1545 1545 1545 1544 1544 1544 1543 1543 1543 1543 1542 1542 1541 1541 1539 1538 1537 1536 1535 1534 1533 1532 1530 1529 1527 1526 1523 1520 1516 1514 1512 1510 1508 1505 1501 1500 1498 1495 1493 1491 1489 1486 1484 1482 1480 1477 1475 1473 1472 1470 1468 1466 1464 1462 1461 1460 1459 1459 1458 1457 1456 1456 1456 1457 1457 1457 1457 1457 1457 1458
1541 1541 1541 1541 1542 1542 1542 1542 1542 1543 1544 1544 1545 1545 1546 1546 1545 1545 1545 1544 1544 1544 1544 1544 1543 1543 1543 1542 1541 1540 1539 1538 1537 1536 1535 1534 1533 1531 1530 1529 1527 1525 1524 1521 1517 1515 1512 1509 1506 1502 1499 1497 1494 1492 1489 1487 1485 1482 1480 1478 1475 1473 1471 1469 1468 1466 1463 1461 1459 1457 1456 1455 1454 1454 1453 1452 1451 1451 1451 1452 1452 1453 1453 1453 1453
1541 1541 1541 1541 1542 1542 1542 1542 1543 1544 1545 1545 1546 1546 1546 1546 1546 1546 1546 1545 1545 1545 1545 1545 1544 1544 1543 1542 1541 1540 1539 1539 1538 1537 1536 1535 1533 1532 1531 1529 1528 1526 1525 1523 1519 1517 1514 1510 1506 1504 1500 1496 1493 1490 1488 1486 1483 1481 1478 1475 1473 1471 1468 1466 1464 1463 1460 1458 1456 1454 1452 1451 1450 1449 1448 1448 1447 1447 1447 1447 1447 1448 1448 1448 1449
1541 1541 1541 1542 1542 1542 1543 1543 1543 1544 1545 1546 1546 1547 1547 1547 1547 1547 1547 1546 1546 1546 1546 1545 1545 1544 1544 1543 1542 1541 1541 1540 1539 1538 1536 1535 1534 1533 1531 1529 1528 1526 1525 1524 1520 1517 1516 1512 1508 1504 1501 1497 1493 1490 1486 1484 1482 1479 1476 1473 1471 1468 1466 1463 1461 1459 1457 1454 1452 1450 1448 1447 1445 1444 1443 1443 1442 1442 1442 1442 1443 1443 1443 1444 1445
1541 1541 1542 1542 1542 1543 1543 1543 1544 1545 1546 1547 1547 1548 1548 1547 1547 1547 1547 1547 1547 1546 1546 1546 1546 1545 1544 1544 1543 1542 1542 1541 1540 1538 1537 1536 1534 1533 1532 1530 1529 1528 1526 1524 1521 1517 1514 1512 1508 1504 1501 1496 1493 1490 1485 1481 1479 1476 1473 1471 1468 1465 1462 1459 1457 1455 1453 1451 1449 1446 1445 1443 1441 1440 1438 1438 1438 1437 1437 1437 1438 1438 1439 1440 1440
1541 1542 1542 1542 1543 1543 1543 1544 1545 1546 1547 1547 1548 1548 1548 1548 1548 1548 1548 1548 1547 1547 1547 1547 1546 1546 1545 1544 1543 1543 1542 1541 1540 1539 1538 1537 1535 1534 1533 1531 1530 1529 1527 1524 1521 1517 1512 1510 1507 1503 1500 1496 1492 1488 1485 1480 1477 1473 1471 1468 1465 1462 1459 1456 1453 1451 1448 1446 1444 1443 1441 1439 1437 1435 1434 1433 1433 1433 1432 1432 1432 1433 1434 1435 1436
1542 1542 1542 1543 1543 1543 1544 1545 1546 1547 1547 1548 1548 1549 1548 1548 1548 1548 1548 1548 1548 1548 1548 1547 1547 1547 1546 1545 1545 1544 1543 1542 1541 1540 1539 1538 1537 1535 1534 1533 1531 1530 1528 1525 1521 1517 1512 1508 1506 1502 1498 1495 1491 1487 1484 1480 1476 1472 1468 1465 1462 1459 1456 1453 1449 1447 1444 1442 1440 1438 1437 1435 1433 1431 1430 1429 1429 1429 1428 1427 1427 1428 1429 1430 1431
1542 1542 1542 1543 1544 1544 1545 1546 1547 1548 1548 1548 1549 1549 1549 1549 1549 1549 1549 1549 1549 1548 1548 1548 1548 1548 1547 1546 1546 1545 1544 1543 1542 1541 1540 1539 1538 1537 1535 1534 1532 1530 1527 1525 1522 1518 1513 1508 1505 1502 1498 1494 1491 1487 1483 1478 1475 1471 1467 1463 1459 1456 1452 1449 1446 1443 1440 1438 1435 1433 1432 1430 1429 1427 1425 1424 1423 1424 1423 1423 1422 1422 1423 1425 1426
1542 1543 1543 1544 1544 1545 1546 1547 1547 1548 1548 1549 1549 1549 1549 1549 1550 1550 1549 1550 1549 1549 1549 1549 1549 1548 1548 1547 1547 1546 1545 1544 1543 1542 1541 1540 1538 1537 1536 1534 1532 1530 1527 1525 1522 1518 1514 1508 1504 1501 1498 1494 1490 1486 1482 1477 1472 1467 1464 1460 1457 1453 1448 1445 1442 1439 1436 1433 1431 1428 1426 1425 1424 1423 1421 1420 1418 1418 1418 1417 1417 1417 1418 1419 1420
1542 1543 1544 1544 1545 1546 1547 1547 1548 1549 1549 1549 1549 1550 1550 1550 1550 1550 1550 1550 1550 1550 1550 1550 1550 1549 1549 1548 1547 1546 1545 1544 1544 1543 1541 1540 1539 1537 1536 1533 1531 1529 1526 1524 1521 1517 1514 1509 1504 1500 1496 1493 1488 1484 1481 1477 1472 1466 1460 1455 1451 1449 1445 1440 1437 1434 1432 1429 1426 1424 1421 1420 1419 1418 1417 1415 1414 1413 1412 1412 1412 1412 1412 1413 1415
1543 1544 1544 1545 1546 1546 1547 1548 1549 1549 1550 1550 1550 1550 1551 1551 1551 1551 1551 1551 1551 1551 1551 1551 1551 1551 1550 1549 1548 1547 1546 1545 1544 1543 1542 1541 1539 1537 1535 1533 1531 1528 1525 1523 1520 1516 1512 1508 1504 1499 1495 1492 1488 1483 1479 1476 1472 1467 1461 1453 1446 1442 1440 1437 1433 1429 1426 1424 1421 1419 1417 1415 1413 1413 1412 1410 1409 1408 1406 1406 1407 1407 1407 1408 1409
1543 1544 1545 1545 1546 1547 1548 1549 1549 1550 1550 1550 1551 1551 1551 1551 1551 1551 1552 1552 1552 1552 1552 1552 1552 1551 1551 1550 1549 1548 1547 1546 1545 1544 1543 1541 1539 1537 1535 1533 1530 1528 1525 1522 1518 1515 1511 1507 1503 1499 1495 1491 1487 1483 1478 1474 1469 1465 1462 1456 1448 1441 1436 1433 1430 1427 1422 1418 1416 1414 1412 1410 1407 1406 1406 1405 1404 1403 1401 1400 1400 1401 1402 1402 1403
1543 1544 1545 1546 1547 1548 1548 1549 1550 1550 1551 1551 1552 1552 1552 1552 1552 1552 1553 1553 1553 1553 1553 1553 1552 1552 1551 1551 1550 1549 1548 1548 1546 1545 1543 1542 1539 1537 1535 1532 1530 1527 1524 1521 1517 1513 1510 1506 1502 1499 1494 1490 1486 1482 1477 1473 1469 1464 1460 1456 1450 1443 1436 1429 1426 1426 1421 1415 1411 1408 1407 1406 1402 1400 1399 1398 1398 1397 1395 1394 1394 1395 1395 1396 1397
1544 1545 1546 1547 1548 1549 1549 1550 1551 1551 1552 1552 1552 1552 1552 1552 1553 1553 1554 1554 1554 1554 1554 1554 1553 1553 1552 1551 1550 1550 1549 1548 1547 1545 1544 1542 1540 1537 1535 1532 1529 1526 1523 1520 1516 1513 1509 1506 1502 1498 1494 1490 1486 1482 1478 1474 1470 1465 1460 1455 1448 1441 1435 1427 1420 1419 1419 1415 1408 1402 1401 1402 1399 1394 1393 1392 1391 1391 1390 1389 1388 1388 1389 1390 1391
1544 1545 1547 1548 1548 1549 1550 1551 1552 1552 1552 1553 1553 1553 1553 1553 1554 1554 1555 1555 1555 1555 1554 1554 1554 1553 1552 1552 1551 1550 1549 1548 1547 1545 1544 1542 1540 1538 1536 1533 1530 1527 1523 1519 1516 1513 1510 1506 1503 1499 1495 1491 1487 1483 1478 1473 1469 1464 1459 1454 1448 1441 1436 1429 1420 1414 1414 1413 1407 1399 1395 1397 1396 1391 1387 1387 1386 1385 1385 1384 1383 1383 1383 1384 1385
1544 1546 1547 1548 1549 1550 1551 1552 1552 1552 1553 1553 1553 1554 1554 1554 1554 1555 1555 1555 1555 1555 1555 1555 1555 1554 1553 1552 1551 1550 1549 1548 1546 1545 1543 1541 1539 1537 1535 1533 1531 1528 1525 1521 1516 1513 1510 1506 1503 1500 1496 1491 1487 1483 1478 1472 1467 1463 1458 1453 1448 1442 1436 1432 1425 1416 1412 1411 1406 1397 1391 1392 1392 1387 1383 1382 1382 1380 1380 1380 1380 1379 1378 1378 1378
1545 1546 1548 1549 1550 1550 1551 1552 1553 1553 1553 1554 1554 1554 1554 1555 1555 1555 1556 1556 1556 1556 1555 1555 1555 1554 1553 1552 1551 1550 1549 1547 1546 1545 1543 1540 1538 1537 1534 1532 1530 1527 1524 1521 1518 1514 1511 1508 1504 1501 1497 1492 1487 1483 1478 1473 1467 1461 1456 1450 1446 1441 1436 1431 1426 1418 1411 1408 1404 1395 1388 1387 1387 1383 1379 1378 1377 1376 1375 1375 1376 1375 1374 1374 1373
1545 1547 1548 1549 1550 1551 1551 1552 1553 1553 1554 1554 1554 1555 1555 1555 1556 1556 1556 1556 1556 1556 1556 1555 1555 1554 1553 1552 1551 1550 1549 1547 1546 1544 1542 1540 1538 1536 1534 1531 1529 1526 1523 1520 1517 1515 1512 1509 1505 1501 1498 1494 1489 1484 1478 1473 1467 1461 1455 1448 1443 1438 1434 1429 1424 1417 1411 1407 1403 1395 1386 1383 1382 1378 1374 1373 1373 1371 1370 1371 1371 1371 1371 1370 1369
1546 1547 1549 1550 1550 1551 1552 1553 1553 1554 1554 1554 1555 1555 1555 1555 1555 1556 1556 1556 1556 1556 1556 1555 1555 1554 1553 1551 1551 1549 1548 1547 1545 1543 1541 1539 1537 1535 1533 1531 1528 1526 1523 1519 1516 1514 1511 1509 1505 1502 1498 1494 1490 1485 1478 1473 1468 1462 1456 1449 1443 1437 1431 1426 1420 1415 1410 1406 1402 1395 1386 1380 1378 1375 1370 1369 1368 1366 1365 1366 1366 1366 1366 1365 1365
1546 1548 1549 1550 1551 1552 1552 1553 1554 1554 1554 1555 1555 1555 1555 1555 1555 1555 1556 1556 1556 1556 1556 1555 1555 1553 1552 1551 1550 1549 1548 1547 1545 1543 1541 1539 1537 1535 1533 1530 1528 1525 1522 1519 1517 1514 1511 1508 1505 1502 1499 1495 1490 1485 1479 1473 1467 1460 1454 1448 1441 1435 1428 1422 1416 1410 1406 1402 1399 1395 1386 1379 1376 1373 1367 1365 1363 1361 1360 1361 1361 1361 1361 1361 1360
1547 1548 1549 1550 1551 1552 1553 1553 1554 1554 1554 1555 1555 1555 1555 1555 1555 1555 1556 1556 1556 1556 1556 1555 1554 1553 1552 1551 1550 1549 1548 1547 1545 1543 1541 1539 1537 1534 1532 1529 1527 1525 1522 1519 1516 1514 1511 1508 1505 1501 1498 1494 1489 1484 1478 1472 1466 1459 1451 1444 1438 1432 1426 1419 1413 1407 1402 1399 1396 1392 1385 1378 1374 1371 1366 1361 1359 1357 1355 1355 1356 1356 1356 1356 1356
1547 1548 1549 1550 1551 1552 1553 1553 1554 1554 1555 1555 1555 1555 1555 1554 1555 1555 1555 1556 1556 1556 1555 1555 1554 1553 1552 1551 1550 1549 1548 1546 1544 1543 1541 1539 1536 1534 1531 1529 1526 1523 1520 1517 1514 1512 1509 1506 1503 1500 1496 1492 1488 1482 1477 1471 1465 1459 1451 1444 1437 1432 1426 1420 1413 1405 1399 1396 1394 1390 1383 1376 1372 1369 1365 1358 1353 1351 1352 1351 1351 1352 1352 1352 1352
1547 1548 1549 1550 1551 1552 1552 1553 1554 1554 1555 1555 1555 1554 1554 1554 1555 1555 1555 1555 1555 1555 1555 1554 1554 1553 1552 1552 1551 1549 1548 1546 1544 1542 1541 1539 1536 1534 1531 1528 1526 1523 1520 1517 1513 1510 1507 1504 1500 1497 1494 1490 1486 1481 1476 1470 1464 1458 1452 1445 1438 1432 1426 1420 1414 1406 1398 1393 1392 1389 1382 1375 1371 1367 1364 1360 1350 1344 1346 1348 1348 1348 1349 1349 1349